Weather in Gancevichi

Belarus     52˚45′45″N   26˚25′38″E
temp.,
°C
wind,
m/s
gust,
m/s
humid.,
%
clouds,
%
prec.,
mm/h
press.,
hPa
HPBL,
m
27 november, fri
fri2700:00−1˚wsw49850 0.0 1017303
03:00wsw498718 0.0 1017352
06:00+2˚wsw51083100 0.0 1015482
09:00+3˚wsw61388100 0.3 1013570
12:00+5˚w61282100 0.0 1014783
15:00+4˚w71391100 0.4 1014713
18:00+3˚w41086100 0.2 1015352
21:00+3˚wsw4894100 0.9 1015369
28 november, sat
sat2800:00+3˚wsw489093 0.9 1015435
03:00+2˚wnw379488 1.3 1015419
06:00+1˚nnw3596100 0.3 1015292
09:00n358999 0.4 1016289
12:00nne348595 0.0 1017356
15:00+1˚nne348090 0.0 1017542
18:00ne3479100 0.0 1017467
21:00−1˚nne348898 0.0 1018142
29 november, sun
sun2900:00−1˚ne238979 0.0 1019130
03:00−1˚nne249590 0.0 1019133
06:00+1˚ene239899 0.1 1019176
09:00ene2397100 0.3 1019148
12:00ene3595100 0.3 1019313
15:00ene3595100 0.6 1019343
18:00ene3597100 0.6 1019323
21:00−1˚ene239899 1.2 1020135
30 november, mon
mon3000:00−2˚ne129771 0.1 102027
03:00−2˚n119771 0.1 102121
06:00−2˚w119767 0.1 102233
09:00−3˚wnw119758 0.1 102421
12:00−1˚sw238952 0.0 1025272
15:00w248059 0.0 1026625
18:00−1˚w249066 0.0 1027145
21:00−1˚wsw248073 0.0 1029506
1 december, tue
tue100:00−1˚wsw348395 0.0 1029394
03:00−1˚wsw357997 0.1 1029607
06:00−1˚sw3478100 0.1 1029604
09:00−1˚ssw2477100 0.1 1029609
12:00−1˚ssw357696 0.0 1028690
15:00−1˚s347497 0.1 1027748
18:00−1˚se247899 0.0 1027295
21:00−3˚ese3485100 0.0 1027132